2026-052A

Last updated on Sun Apr 12 2026 00:02:07 GMT+0000 (Coordinated Universal Time)

1 68198U 26052A 26101.52637883 .00005046 00000+0 31233-3 0 9998 2 68198 97.5352 177.3518 0014224 170.7585 189.3909 15.10167898 3988
UTC large
Height (km)
Speed (km/s)
/
Latitude / Longitude
Inclination (degrees)
Orbital Period (minutes)
Azimuth
Elevation
Range (km)
Doppler Factor

Next 0 passes for location: London (51.5072 / 0.1276)

Sorry there are no passes over London.
2026-052A